Regional Weather Roundup
Issued by NWS

Home | Current Version | Previous Version | Graphics & Text | Print | Product List | Glossary On
Versions: 1 2 3 4 5 6 7 8 9 10 11 12 13 14 15 16 17 18 19 20 21 22 23 24 25 26 27 28 29 30 31 32 33 34 35 36 37 38 39 40 41 42 43 44 45 46 47 48 49 50
000
ASUS43 KLMK 220610
RWRKY
KENTUCKY REGIONAL WEATHER ROUNDUP
NATIONAL WEATHER SERVICE LOUISVILLE KY
200 AM EDT FRI MAY 22 2015

NOTE "FAIR" INDICATES FEW OR NO CLOUDS BELOW 12,000 FEET
WITH NO SIGNIFICANT WEATHER AND/OR OBSTRUCTIONS TO VISIBILITY.

KYZ001>023-026-027-061>063-070>075-220700-
WESTERN AND SOUTH CENTRAL KENTUCKY

CITY           SKY/WX    TMP DP  RH WIND       PRES   REMARKS
PADUCAH        CLEAR     45  42  89 SW3       30.21F
HENDERSON      CLEAR     43  41  93 SW5       30.19S
OWENSBORO      CLEAR     46  45  97 CALM      30.20S
HOPKINSVILLE   CLEAR     47  45  94 SW2       30.21S
BOWLING GREEN  CLEAR     47  44  90 CALM      30.21S
GLASGOW        CLEAR     43  43 100 CALM      30.21R FOG
$$

KYZ024-025-028>034-038-045-046-053-220700-
NORTH CENTRAL KENTUCKY

CITY           SKY/WX    TMP DP  RH WIND       PRES   REMARKS
LOUISVILLE/SDF CLEAR     51  44  77 S5        30.17S
LOUISVILLE/LOU CLEAR     47  43  86 CALM      30.18S
FORT KNOX      CLEAR     44  42  93 SE1       30.17S
$$

KYZ035>037-039>044-047>052-055>060-089>105-220700-
NORTHEAST KENTUCKY

CITY           SKY/WX    TMP DP  RH WIND       PRES   REMARKS
LEXINGTON      CLEAR     44  41  89 SW5       30.17S
COVINGTON      CLEAR     47  41  80 SW5       30.13F
FRANKFORT      CLEAR     44  40  85 SW5       30.16S
$$

KYZ054-064>069-076>088-106>120-220700-
SOUTHEAST KENTUCKY

CITY           SKY/WX    TMP DP  RH WIND       PRES   REMARKS
JACKSON        FOG       45  43  93 CALM      30.17S VSB 1/4
LONDON         CLEAR     46  42  86 CALM      30.18S
SOMERSET       CLEAR     45  45 100 CALM      30.20S FOG
MIDDLESBORO    CLOUDY    51  47  88 N5        30.18S
MONTICELLO     FOG       45  45 100 CALM      30.23R VSB 3/4
$$




USA.gov is the U.S. government's official web portal to all federal, state and local government web resources and services.